When you browse on this site, cookies collect data to enhance your experience and personalize the content and advertising you see.
Visit our Privacy Policy to learn more. By continuing to use the site, you agree to this use of cookies and data.
  • In Hungary
  • List of Countries
  • For 7 days
  • Water Temperature
  • Satellite Maps
  • Weather Map
  • News
  • Weather Widgets
  • user-avatar
    Login

    Hourly Weather Qiaogu

    Today, 23 April, Tuesday

    Time Temperature Precipitation Wind Pressure Humidity
    00:00 +20°C° 0 mm 3 mps 757 mmHg 65%
    01:00 +19°C° 0 mm 2 mps 757 mmHg 67%
    02:00 +19°C° 0 mm 2 mps 757 mmHg 70%
    03:00 +19°C° 0 mm 2 mps 757 mmHg 72%
    04:00 +18°C° 0 mm 2 mps 757 mmHg 74%
    05:00 +18°C° 0 mm 2 mps 756 mmHg 76%
    06:00 +19°C° 0 mm 2 mps 756 mmHg 73%
    07:00 +20°C° 0 mm 2 mps 756 mmHg 70%
    08:00 +21°C° 0 mm 2 mps 757 mmHg 66%
    09:00 +23°C° 0 mm 2 mps 757 mmHg 61%
    10:00 +24°C° 0 mm 3 mps 757 mmHg 56%
    11:00 +26°C° 0 mm 3 mps 756 mmHg 52%
    12:00 +26°C° 0 mm 4 mps 756 mmHg 50%
    13:00 +27°C° 0 mm 4 mps 756 mmHg 48%
    14:00 +27°C° 0 mm 5 mps 756 mmHg 46%
    15:00 +26°C° 0 mm 5 mps 755 mmHg 48%
    16:00 +24°C° 0 mm 6 mps 755 mmHg 51%
    17:00 +23°C° 0 mm 6 mps 755 mmHg 53%
    18:00 +22°C° 0 mm 6 mps 755 mmHg 60%
    19:00 +20°C° 0 mm 6 mps 755 mmHg 67%
    20:00 +17°C° 0 mm 6 mps 755 mmHg 73%
    21:00 +17°C° 0 mm 5 mps 756 mmHg 75%
    22:00 +16°C° 0 mm 5 mps 756 mmHg 78%
    23:00 +17°C° 0 mm 4 mps 757 mmHg 80%

    Tomorrow, 24 April, Wednesday

    Time Temperature Precipitation Wind Pressure Humidity
    00:00 +15°C° 0 mm 4 mps 757 mmHg 81%
    01:00 +15°C° 0 mm 4 mps 757 mmHg 82%
    02:00 +15°C° 0 mm 4 mps 757 mmHg 84%
    03:00 +14°C° 0 mm 4 mps 757 mmHg 85%
    04:00 +14°C° 0 mm 4 mps 757 mmHg 87%
    05:00 +14°C° 0 mm 4 mps 757 mmHg 88%
    06:00 +14°C° 0 mm 4 mps 757 mmHg 84%
    07:00 +15°C° 0 mm 5 mps 758 mmHg 81%
    08:00 +16°C° 0 mm 5 mps 758 mmHg 77%
    09:00 +16°C° 0 mm 6 mps 759 mmHg 66%
    10:00 +16°C° 0 mm 7 mps 759 mmHg 56%
    11:00 +16°C° 0 mm 8 mps 760 mmHg 45%
    12:00 +15°C° 0 mm 8 mps 760 mmHg 41%
    13:00 +15°C° 0 mm 8 mps 760 mmHg 36%
    14:00 +15°C° 0 mm 7 mps 761 mmHg 32%
    15:00 +13°C° 0 mm 8 mps 761 mmHg 38%
    16:00 +12°C° 0 mm 8 mps 761 mmHg 45%
    17:00 +11°C° 0 mm 8 mps 761 mmHg 52%
    18:00 +10°C° 0.5 mm 7 mps 761 mmHg 56%
    19:00 +10°C° 0.5 mm 7 mps 761 mmHg 61%
    20:00 +9°C° 0.5 mm 7 mps 761 mmHg 65%
    21:00 +8°C° 3 mm 7 mps 762 mmHg 66%
    22:00 +8°C° 3 mm 6 mps 763 mmHg 66%
    23:00 +8°C° 3 mm 6 mps 763 mmHg 67%

    Day after tomorrow, 25 April, Thursday

    Time Temperature Precipitation Wind Pressure Humidity
    00:00 +8°C° 0 mm 6 mps 763 mmHg 61%
    01:00 +8°C° 0 mm 5 mps 762 mmHg 56%
    02:00 +8°C° 0 mm 4 mps 762 mmHg 50%
    03:00 +8°C° 0 mm 4 mps 762 mmHg 54%
    04:00 +8°C° 0 mm 4 mps 762 mmHg 58%
    05:00 +7°C° 0 mm 4 mps 762 mmHg 62%
    06:00 +10°C° 0 mm 4 mps 762 mmHg 56%
    07:00 +11°C° 0 mm 4 mps 763 mmHg 50%
    08:00 +12°C° 0 mm 4 mps 763 mmHg 44%
    09:00 +13°C° 0 mm 4 mps 763 mmHg 36%
    10:00 +15°C° 0 mm 4 mps 763 mmHg 28%
    11:00 +18°C° 0 mm 4 mps 763 mmHg 21%
    12:00 +18°C° 0 mm 3 mps 763 mmHg 20%
    13:00 +19°C° 0 mm 2 mps 763 mmHg 20%
    14:00 +20°C° 0 mm 2 mps 762 mmHg 19%
    15:00 +19°C° 0 mm 2 mps 762 mmHg 20%
    16:00 +19°C° 0 mm 3 mps 762 mmHg 20%
    17:00 +19°C° 0 mm 3 mps 761 mmHg 21%
    18:00 +18°C° 0 mm 3 mps 762 mmHg 24%
    19:00 +15°C° 0 mm 4 mps 762 mmHg 27%
    20:00 +13°C° 0 mm 4 mps 762 mmHg 29%
    21:00 +13°C° 0 mm 4 mps 762 mmHg 30%
    22:00 +13°C° 0 mm 3 mps 763 mmHg 31%
    23:00 +13°C° 0 mm 2 mps 763 mmHg 31%

    26 April, Friday

    Time Temperature Precipitation Wind Pressure Humidity
    00:00 +14°C° 0 mm 2 mps 763 mmHg 32%
    01:00 +14°C° 0 mm 2 mps 763 mmHg 32%
    02:00 +14°C° 0 mm 1 mps 763 mmHg 32%
    03:00 +13°C° 0.1 mm 1 mps 764 mmHg 34%
    04:00 +13°C° 0.1 mm 1 mps 764 mmHg 37%
    05:00 +13°C° 0.1 mm 1 mps 764 mmHg 40%
    06:00 +13°C° 0.1 mm 2 mps 765 mmHg 42%
    07:00 +13°C° 0.1 mm 2 mps 766 mmHg 44%
    08:00 +13°C° 0.1 mm 2 mps 766 mmHg 47%
    09:00 +14°C° 0 mm 2 mps 767 mmHg 42%
    10:00 +16°C° 0 mm 2 mps 767 mmHg 37%
    11:00 +17°C° 0 mm 2 mps 767 mmHg 32%
    12:00 +18°C° 0 mm 2 mps 766 mmHg 31%
    13:00 +18°C° 0 mm 2 mps 766 mmHg 29%
    14:00 +19°C° 0 mm 2 mps 766 mmHg 27%
    15:00 +19°C° 0 mm 2 mps 765 mmHg 28%
    16:00 +19°C° 0 mm 3 mps 765 mmHg 28%
    17:00 +19°C° 0 mm 3 mps 765 mmHg 28%
    18:00 +18°C° 0 mm 3 mps 765 mmHg 29%
    19:00 +17°C° 0 mm 4 mps 765 mmHg 31%
    20:00 +15°C° 0 mm 4 mps 765 mmHg 32%
    21:00 +14°C° 0 mm 4 mps 765 mmHg 30%
    22:00 +14°C° 0 mm 4 mps 766 mmHg 29%
    23:00 +14°C° 0 mm 3 mps 766 mmHg 27%

    27 April, Saturday

    Time Temperature Precipitation Wind Pressure Humidity
    00:00 +13°C° 0 mm 3 mps 766 mmHg 27%
    01:00 +13°C° 0 mm 3 mps 766 mmHg 26%
    02:00 +13°C° 0 mm 3 mps 765 mmHg 26%
    03:00 +12°C° 0 mm 3 mps 765 mmHg 27%
    04:00 +12°C° 0 mm 3 mps 765 mmHg 27%
    05:00 +13°C° 0 mm 2 mps 765 mmHg 27%
    06:00 +14°C° 0 mm 2 mps 766 mmHg 26%
    07:00 +15°C° 0 mm 2 mps 766 mmHg 24%
    08:00 +16°C° 0 mm 2 mps 766 mmHg 23%
    09:00 +17°C° 0 mm 3 mps 766 mmHg 22%
    10:00 +19°C° 0 mm 4 mps 765 mmHg 20%
    11:00 +20°C° 0 mm 5 mps 765 mmHg 19%
    12:00 +20°C° 0 mm 5 mps 764 mmHg 19%
    13:00 +20°C° 0 mm 5 mps 764 mmHg 19%
    14:00 +20°C° 0 mm 6 mps 763 mmHg 19%
    15:00 +19°C° 0 mm 5 mps 763 mmHg 21%
    16:00 +17°C° 0 mm 5 mps 763 mmHg 24%
    17:00 +16°C° 0 mm 5 mps 763 mmHg 27%
    18:00 +17°C° 0 mm 4 mps 763 mmHg 31%
    19:00 +15°C° 0 mm 4 mps 763 mmHg 34%
    20:00 +14°C° 0 mm 3 mps 763 mmHg 38%
    21:00 +14°C° 0.1 mm 3 mps 763 mmHg 43%
    22:00 +14°C° 0.1 mm 3 mps 764 mmHg 48%
    23:00 +14°C° 0.1 mm 2 mps 764 mmHg 53%

    28 April, Sunday

    Time Temperature Precipitation Wind Pressure Humidity
    00:00 +13°C° 0.1 mm 3 mps 763 mmHg 57%
    01:00 +12°C° 0.1 mm 3 mps 763 mmHg 60%
    02:00 +12°C° 0.1 mm 3 mps 763 mmHg 64%
    03:00 +11°C° 0 mm 3 mps 762 mmHg 67%
    04:00 +11°C° 0 mm 3 mps 762 mmHg 69%
    05:00 +11°C° 0 mm 3 mps 762 mmHg 72%
    06:00 +12°C° 0 mm 3 mps 762 mmHg 69%
    07:00 +12°C° 0 mm 3 mps 762 mmHg 66%
    08:00 +13°C° 0 mm 3 mps 763 mmHg 62%
    09:00 +14°C° 0 mm 3 mps 762 mmHg 58%
    10:00 +15°C° 0 mm 4 mps 762 mmHg 53%
    11:00 +17°C° 0 mm 4 mps 762 mmHg 48%
    12:00 +17°C° 0 mm 4 mps 761 mmHg 47%
    13:00 +18°C° 0 mm 4 mps 760 mmHg 45%
    14:00 +17°C° 0 mm 5 mps 760 mmHg 43%
    15:00 +17°C° 0 mm 5 mps 759 mmHg 44%
    16:00 +17°C° 0 mm 5 mps 759 mmHg 45%
    17:00 +17°C° 0 mm 5 mps 758 mmHg 46%
    18:00 +15°C° 0 mm 5 mps 758 mmHg 52%
    19:00 +14°C° 0 mm 5 mps 759 mmHg 58%
    20:00 +13°C° 0 mm 5 mps 759 mmHg 63%
    21:00 +13°C° 0 mm 4 mps 759 mmHg 67%
    22:00 +13°C° 0 mm 4 mps 759 mmHg 70%
    23:00 +13°C° 0 mm 3 mps 759 mmHg 74%
    Show more